Location: Bridgewater
(44.3670°N, 64.5170°W)
Time: 01:42:50
(UTC-04:00)

Amateur Radio Satellites - All Passes

Search period start: 18 January 2018 01:12
Search period end: 19 January 2018 01:12
Location: Bridgewater, 44.3670°N, 64.5170°W

Satellite Date Start Highest point End Downlink Frequencies (MHz)
Time Altitude Azimuth
MOZHAYETS 4 18 Jan 01:15:05 01:17:41 15° 61° (ENE) 01:20:17
VELOX 1 18 Jan 01:29:52 01:32:47 17° 268° (W) 01:35:44 145.980
POLYITAN 1 18 Jan 01:40:14 01:43:12 19° 296° (WNW) 01:46:10 437.675
ITUPSAT 1 18 Jan 01:47:11 01:50:32 19° 62° (ENE) 01:53:55 437.325
Oscar 19 18 Jan 01:49:36 01:54:45 63° 102° (ESE) 01:59:51 437.125/150
UKube-1 18 Jan 01:50:56 01:55:12 75° 256° (WSW) 01:59:32 .
O/OREOS (USA 219) 18 Jan 01:54:29 01:58:56 56° 297° (WNW) 02:03:22 437.305
DX 1 18 Jan 01:55:34 01:59:38 40° 261° (W) 02:03:45 434.975-435.025
NANOSAT C BR1 18 Jan 01:59:58 02:02:06 14° 299° (WNW) 02:04:13 145.865
NO-84 18 Jan 02:15:54 02:17:46 15° 230° (SW) 02:19:40 435.350 FM
ISS 18 Jan 02:22:13 02:25:01 25° 11° (N) 02:27:49 437.550
nSIGHT-1 18 Jan 02:23:19 02:26:08 28° 15° (NNE) 02:28:56 .
BUGSAT 1 18 Jan 02:24:10 02:27:54 31° 291° (WNW) 02:31:37 437.445
YUBILEINY 18 Jan 02:24:23 02:28:51 15° 306° (NW) 02:33:20 435.215
BEESAT 18 Jan 02:27:51 02:32:22 45° 69° (ENE) 02:36:56 436.000
AO-91 18 Jan 02:36:27 02:40:20 36° 289° (WNW) 02:44:35 145.960
CUBESAT XI-V 18 Jan 02:44:11 02:48:12 29° 67° (ENE) 02:52:13 437.345
Gurwin Techsat 1B 18 Jan 02:47:07 02:52:18 55° 289° (WNW) 02:57:28 435.225
MOZHAYETS 4 18 Jan 02:49:39 02:54:15 69° 258° (WSW) 02:58:54
ITAMSAT 1 18 Jan 02:50:23 02:52:31 12° 88° (E) 02:54:38 435.822/435.867
ITUPSAT 1 18 Jan 03:23:17 03:27:57 54° 259° (W) 03:32:40 437.325
Oscar 19 18 Jan 03:29:59 03:33:34 19° 300° (WNW) 03:37:08 437.125/150
AO-7 18 Jan 03:35:26 03:43:38 54° 102° (ESE) 03:51:44 .
ISS 18 Jan 03:58:34 04:01:51 80° 30° (NNE) 04:05:09 437.550
nSIGHT-1 18 Jan 03:59:21 04:02:31 72° 214° (SW) 04:05:42 .
BEESAT 18 Jan 04:06:45 04:10:20 21° 267° (W) 04:13:58 436.000
DOVE 4 18 Jan 04:16:25 04:19:40 20° 94° (E) 04:22:59 437.250
CUBESAT XI-V 18 Jan 04:21:14 04:25:27 33° 264° (W) 04:29:42 437.345
ITAMSAT 1 18 Jan 04:27:24 04:32:37 86° 289° (WNW) 04:37:50 435.822/435.867
KKS-1 18 Jan 04:43:19 04:47:43 75° 75° (ENE) 04:52:09 437.445
M-CUBED/EXP-1 PRIME 18 Jan 04:52:02 04:55:04 29° 102° (ESE) 04:57:59 437.505
STARS 18 Jan 05:09:02 05:13:17 55° 72° (ENE) 05:17:34 437.465
XW-2D 18 Jan 05:17:46 05:19:16 12° 90° (E) 05:20:44 145.860 - 145.880
AO-7 18 Jan 05:28:35 05:36:08 40° 302° (WNW) 05:43:40 .
NUDT-PHONESAT 18 Jan 05:32:53 05:33:55 11° 90° (E) 05:34:58 437.300
XW-2B 18 Jan 05:34:16 05:36:54 18° 93° (E) 05:39:31 145.730 - 145.750
ISS 18 Jan 05:36:01 05:37:57 15° 227° (SW) 05:39:53 437.550
CUTE-I 18 Jan 05:37:28 05:41:18 20° 92° (E) 05:45:08 437.470
DOVE 4 18 Jan 05:53:31 05:57:28 38° 289° (WNW) 06:01:36 437.250
FALCONSAT 3 18 Jan 05:56:05 05:58:00 14° 164° (SSE) 05:59:55 435.103
LilacSat-2 18 Jan 05:57:09 06:00:41 36° 97° (E) 06:04:11 437.200
STRAND 1 18 Jan 05:58:07 06:02:27 29° 65° (ENE) 06:06:48 437.568
XW-2C 18 Jan 06:03:39 06:07:13 40° 98° (E) 06:10:46 145.795 - 145.815
ITAMSAT 1 18 Jan 06:08:55 06:11:18 13° 304° (NW) 06:13:41 435.822/435.867
SO-50 18 Jan 06:10:19 06:14:33 44° 118° (ESE) 06:18:51 436.795
FO-29 18 Jan 06:12:16 06:17:25 24° 62° (ENE) 06:22:08 435.910
KKS-1 18 Jan 06:23:30 06:24:47 11° 271° (W) 06:26:04 437.445
RS-15 18 Jan 06:25:05 06:27:51 11° 91° (E) 06:30:35 29.354- 29.394
M-CUBED/EXP-1 PRIME 18 Jan 06:26:55 06:29:17 17° 301° (WNW) 06:31:33 437.505
CUBEBUG 2 18 Jan 06:36:38 06:40:13 21° 92° (E) 06:43:47 437.445
XW-2F 18 Jan 06:43:12 06:46:56 70° 285° (WNW) 06:50:38 145.980 - 146.000
KAITUO 1B 18 Jan 06:47:17 06:51:00 82° 284° (WNW) 06:54:40 145.475/437.950
STARS 18 Jan 06:47:29 06:49:58 15° 269° (W) 06:52:26 437.465
UWE-3 18 Jan 06:49:29 06:52:21 16° 90° (E) 06:55:12 435.000/436.395/437.385
XW-2D 18 Jan 06:50:03 06:53:44 51° 287° (WNW) 06:57:22 145.860 - 145.880
SEEDS 18 Jan 06:52:31 06:55:58 24° 94° (E) 06:59:22 437.485
CUTE 1.7 + AOD 2 18 Jan 06:58:08 07:02:13 47° 99° (E) 07:06:16 437.475
HO-68 18 Jan 07:00:22 07:07:19 51° 100° (E) 07:14:14 435.675
NUDT-PHONESAT 18 Jan 07:04:28 07:08:04 52° 287° (WNW) 07:11:38 437.300
XW-2B 18 Jan 07:07:44 07:11:10 33° 289° (WNW) 07:14:32 145.730 - 145.750
CUTE-I 18 Jan 07:16:30 07:21:43 58° 289° (WNW) 07:26:55 437.470
ZACube-1 18 Jan 07:20:29 07:23:29 17° 90° (E) 07:26:26 437.345
AO-7 18 Jan 07:25:11 07:26:33 10° 325° (NW) 07:27:56 .
AO-73 18 Jan 07:29:11 07:32:21 18° 91° (E) 07:35:28 145.935
LilacSat-2 18 Jan 07:32:07 07:34:41 17° 295° (WNW) 07:37:13 437.200
FALCONSAT 3 18 Jan 07:33:36 07:36:23 20° 179° (S) 07:39:09 435.103
STRAND 1 18 Jan 07:36:46 07:41:28 38° 263° (W) 07:46:14 437.568
XW-2C 18 Jan 07:38:44 07:41:04 16° 295° (WNW) 07:43:24 145.795 - 145.815
SO-50 18 Jan 07:51:21 07:55:10 27° 318° (NW) 07:59:04 436.795
FO-29 18 Jan 07:55:03 08:02:04 69° 257° (WSW) 08:08:17 435.910
Oscar 11 18 Jan 08:05:39 08:09:18 26° 94° (E) 08:12:55 .
TIGRISAT 18 Jan 08:08:07 08:11:15 19° 63° (ENE) 08:14:27 435.000
CUBEBUG 2 18 Jan 08:12:28 08:17:01 46° 289° (WNW) 08:21:33 437.445
XW-2A 18 Jan 08:15:00 08:18:24 78° 104° (ESE) 08:21:43 145.665 - 145.685
AAUSAT CUBESAT 2 18 Jan 08:19:06 08:23:13 85° 284° (WNW) 08:27:19 437.432
UNISAT 6 18 Jan 08:21:46 08:25:30 28° 67° (ENE) 08:29:21 437.425
UWE-3 18 Jan 08:24:33 08:29:10 59° 287° (WNW) 08:33:44 435.000/436.395/437.385
RS-15 18 Jan 08:25:35 08:37:23 56° 113° (ESE) 08:49:02 29.354- 29.394
SEEDS 18 Jan 08:28:00 08:31:38 30° 291° (WNW) 08:35:15 437.485
YUBILEINY 18 Jan 08:34:30 08:39:27 16° 55° (NE) 08:44:22 435.215
CUTE 1.7 + AOD 2 18 Jan 08:34:55 08:37:40 17° 296° (WNW) 08:40:26 437.475
HO-68 18 Jan 08:48:29 08:54:47 35° 299° (WNW) 09:01:06 435.675
ZACube-1 18 Jan 08:55:35 09:00:03 52° 288° (WNW) 09:04:27 437.345
AO-73 18 Jan 09:04:25 09:08:50 48° 288° (WNW) 09:13:09 145.935
Max Valier Satellite 18 Jan 09:11:20 09:13:33 15° 91° (E) 09:15:46 145.860
FALCONSAT 3 18 Jan 09:12:35 09:14:46 15° 194° (SSW) 09:16:57 435.103
DELFI C3 18 Jan 09:25:52 09:29:29 34° 97° (E) 09:33:05 145.870
PRISM 18 Jan 09:32:02 09:35:43 34° 69° (ENE) 09:39:24 437.425
EO-88 18 Jan 09:37:16 09:39:59 20° 94° (E) 09:42:40 145.990 - 145.960
Oscar 11 18 Jan 09:41:37 09:45:25 31° 292° (WNW) 09:49:12 .
TIGRISAT 18 Jan 09:43:21 09:47:34 46° 261° (W) 09:51:56 435.000
FO-29 18 Jan 09:46:21 09:47:56 11° 273° (W) 09:49:30 435.910
QB50P2 18 Jan 09:54:33 09:55:36 11° 59° (ENE) 09:56:38 145.880/145.840
UNISAT 6 18 Jan 09:58:15 10:02:08 30° 265° (W) 10:06:07 437.425
AIST 2D 18 Jan 10:03:34 10:06:38 29° 71° (ENE) 10:09:44 435.315
PCSat 18 Jan 10:22:47 10:27:55 46° 114° (ESE) 10:33:06 145.827
O/OREOS (USA 219) 18 Jan 10:23:39 10:27:53 40° 60° (ENE) 10:32:07 437.305
EO-79 18 Jan 10:24:21 10:27:23 20° 64° (ENE) 10:30:26 145.935-145.965
DUCHIFAT 1 18 Jan 10:27:35 10:30:12 16° 63° (ENE) 10:32:50 145.980
YUBILEINY 18 Jan 10:29:22 10:38:08 71° 79° (E) 10:46:47 435.215
RS-15 18 Jan 10:37:59 10:50:02 56° 317° (NW) 11:01:51 29.354- 29.394
Max Valier Satellite 18 Jan 10:44:04 10:47:32 38° 288° (WNW) 10:50:58 145.860
BEESAT 3 18 Jan 10:52:18 10:56:17 88° 124° (SE) 11:00:17 437.485
POLYITAN 1 18 Jan 10:57:20 11:01:19 41° 70° (ENE) 11:05:20 437.675
DELFI C3 18 Jan 11:01:09 11:03:59 19° 294° (WNW) 11:06:49 145.870
LO-87 18 Jan 11:06:01 11:09:14 29° 96° (E) 11:12:25 145.935 - 145.965
PRISM 18 Jan 11:07:57 11:11:03 21° 266° (W) 11:14:09 437.425
EO-88 18 Jan 11:10:28 11:13:37 28° 291° (WNW) 11:16:45 145.990 - 145.960
NANOSAT C BR1 18 Jan 11:15:45 11:19:53 58° 73° (ENE) 11:24:03 145.865
QB50P2 18 Jan 11:26:28 11:30:42 84° 257° (WSW) 11:34:59 145.880/145.840
ESTCUBE 1 18 Jan 11:26:59 11:31:14 41° 98° (E) 11:35:26 437.505/2401.250
Oscar 19 18 Jan 11:31:19 11:34:26 16° 59° (ENE) 11:37:34 437.125/150
BEESAT 2 18 Jan 11:32:43 11:36:41 63° 121° (ESE) 11:40:42 435.950
AIST 2D 18 Jan 11:37:21 11:39:50 18° 267° (W) 11:42:19 435.315
BUGSAT 1 18 Jan 11:40:22 11:43:29 22° 66° (ENE) 11:46:41 437.445
EO-79 18 Jan 11:58:51 12:02:50 41° 262° (W) 12:06:53 145.935-145.965
AO-91 18 Jan 12:00:39 12:02:56 17° 66° (ENE) 12:05:14 145.960
SPROUT 18 Jan 12:00:58 12:04:24 23° 94° (E) 12:07:48 437.525
DUCHIFAT 1 18 Jan 12:01:21 12:05:27 51° 260° (W) 12:09:35 145.980
O/OREOS (USA 219) 18 Jan 12:03:37 12:07:02 22° 258° (WSW) 12:10:26 437.305
PCSat 18 Jan 12:06:42 12:11:29 31° 313° (NW) 12:16:18 145.827
YUBILEINY 18 Jan 12:27:17 12:34:06 27° 280° (W) 12:40:53 435.215
Gurwin Techsat 1B 18 Jan 12:30:24 12:35:17 39° 67° (ENE) 12:40:12 435.225
BEESAT 3 18 Jan 12:32:07 12:34:23 14° 324° (NW) 12:36:37 437.485
POLYITAN 1 18 Jan 12:34:17 12:37:16 19° 268° (W) 12:40:17 437.675
LO-87 18 Jan 12:39:45 12:42:26 20° 293° (WNW) 12:45:07 145.935 - 145.965
AO-7 18 Jan 12:46:40 12:52:35 22° 48° (NE) 12:58:30 .
NANOSAT C BR1 18 Jan 12:53:53 12:55:57 13° 270° (W) 12:58:02 145.865
RS-15 18 Jan 12:55:47 13:05:59 29° 348° (NNW) 13:15:53 29.354- 29.394
AO-85 18 Jan 12:56:37 13:00:32 65° 122° (ESE) 13:04:46 145.980
SO-50 18 Jan 13:00:20 13:02:54 14° 32° (NNE) 13:05:28 436.795
ESTCUBE 1 18 Jan 13:04:20 13:07:46 22° 295° (WNW) 13:11:12 437.505/2401.250
Oscar 19 18 Jan 13:07:55 13:13:07 77° 257° (WSW) 13:18:21 437.125/150
BEESAT 2 18 Jan 13:11:56 13:14:47 18° 320° (NW) 13:17:39 435.950
BUGSAT 1 18 Jan 13:14:57 13:18:39 34° 263° (W) 13:22:25 437.445
VELOX 1 18 Jan 13:16:04 13:20:29 77° 103° (ESE) 13:24:53 145.980
AO-91 18 Jan 13:36:21 13:39:15 27° 264° (W) 13:42:13 145.960
SPROUT 18 Jan 13:36:26 13:40:21 35° 291° (WNW) 13:44:14 437.525
UKube-1 18 Jan 13:37:18 13:39:54 16° 92° (E) 13:42:30 .
DX 1 18 Jan 13:41:55 13:45:42 28° 96° (E) 13:49:27 434.975-435.025
50 SAT 18 Jan 13:45:37 13:48:13 24° 96° (E) 13:50:47 437.505
ITAMSAT 1 18 Jan 14:08:59 14:13:06 25° 63° (ENE) 14:17:14 435.822/435.867
Gurwin Techsat 1B 18 Jan 14:10:43 14:15:18 29° 265° (W) 14:19:55 435.225
AO-7 18 Jan 14:35:48 14:44:09 82° 69° (ENE) 14:52:34 .
AO-85 18 Jan 14:38:29 14:41:26 19° 323° (NW) 14:44:31 145.980
SO-50 18 Jan 14:39:34 14:44:15 65° 52° (NE) 14:48:59 436.795
MOZHAYETS 4 18 Jan 14:43:25 14:47:13 24° 94° (E) 14:50:59
VELOX 1 18 Jan 14:54:28 14:56:18 12° 300° (WNW) 14:58:08 145.980
UKube-1 18 Jan 15:12:02 15:16:13 51° 289° (WNW) 15:20:23 .
RS-15 18 Jan 15:12:36 15:23:12 34° 23° (NNE) 15:33:19 29.354- 29.394
50 SAT 18 Jan 15:17:40 15:19:46 17° 293° (WNW) 15:21:52 437.505
DX 1 18 Jan 15:18:05 15:21:48 29° 293° (WNW) 15:25:32 434.975-435.025
ITUPSAT 1 18 Jan 15:22:05 15:26:27 33° 97° (E) 15:30:46 437.325
DOVE 4 18 Jan 15:23:38 15:27:08 25° 67° (ENE) 15:30:32 437.250
M-CUBED/EXP-1 PRIME 18 Jan 15:37:40 15:42:01 61° 68° (ENE) 15:46:05 437.505
ITAMSAT 1 18 Jan 15:47:18 15:52:16 47° 260° (W) 15:57:17 435.822/435.867
BEESAT 18 Jan 16:03:28 16:08:17 85° 104° (ESE) 16:13:05 436.000
CUBESAT XI-V 18 Jan 16:15:24 16:19:57 54° 100° (E) 16:24:26 437.345
XW-2B 18 Jan 16:17:57 16:19:37 13° 63° (ENE) 16:21:17 145.730 - 145.750
MOZHAYETS 4 18 Jan 16:20:11 16:24:27 37° 291° (WNW) 16:28:41
SO-50 18 Jan 16:21:10 16:24:15 17° 249° (WSW) 16:27:20 436.795
AO-7 18 Jan 16:31:32 16:37:47 23° 268° (W) 16:44:06 .
KKS-1 18 Jan 16:34:21 16:36:14 12° 90° (E) 16:38:08 437.445
LilacSat-2 18 Jan 16:40:32 16:43:41 24° 68° (ENE) 16:46:50 437.200
XW-2C 18 Jan 16:46:19 16:49:31 25° 69° (ENE) 16:52:42 145.795 - 145.815
ITUPSAT 1 18 Jan 17:00:00 17:04:10 30° 294° (WNW) 17:08:20 437.325
CUTE-I 18 Jan 17:00:29 17:05:22 38° 67° (ENE) 17:10:15 437.470
DOVE 4 18 Jan 17:00:51 17:04:43 31° 263° (W) 17:08:29 437.250
M-CUBED/EXP-1 PRIME 18 Jan 17:14:14 17:16:36 14° 263° (W) 17:18:55 437.505
XW-2F 18 Jan 17:24:45 17:28:31 66° 75° (ENE) 17:32:19 145.980 - 146.000
RS-15 18 Jan 17:25:58 17:37:52 79° 53° (NE) 17:49:03 29.354- 29.394
PCSat 18 Jan 17:26:52 17:29:26 13° 32° (NNE) 17:32:01 145.827
KAITUO 1B 18 Jan 17:28:01 17:31:41 54° 74° (ENE) 17:35:23 145.475/437.950
HO-68 18 Jan 17:30:34 17:37:15 45° 64° (ENE) 17:43:58 435.675
NO-84 18 Jan 17:31:01 17:33:21 20° 132° (SE) 17:35:36 435.350 FM
BEESAT 3 18 Jan 17:31:09 17:33:07 13° 35° (NE) 17:35:04 437.485
XW-2D 18 Jan 17:31:56 17:35:47 89° 249° (WSW) 17:39:38 145.860 - 145.880
CUBEBUG 2 18 Jan 17:36:31 17:39:41 20° 64° (ENE) 17:42:56 437.445
BEESAT 18 Jan 17:43:10 17:45:22 13° 302° (WNW) 17:47:34 436.000
NUDT-PHONESAT 18 Jan 17:44:04 17:47:47 81° 76° (ENE) 17:51:33 437.300
SEEDS 18 Jan 17:45:42 17:48:57 22° 66° (ENE) 17:52:12 437.485
UWE-3 18 Jan 17:48:19 17:50:57 16° 61° (ENE) 17:53:37 435.000/436.395/437.385
XW-2B 18 Jan 17:49:32 17:53:18 57° 260° (W) 17:57:06 145.730 - 145.750
CUTE 1.7 + AOD 2 18 Jan 17:51:54 17:55:55 40° 71° (ENE) 17:59:55 437.475
CUBESAT XI-V 18 Jan 17:53:47 17:56:54 18° 297° (WNW) 18:00:00 437.345
KKS-1 18 Jan 18:08:48 18:13:15 69° 286° (WNW) 18:17:40 437.445
BEESAT 2 18 Jan 18:12:47 18:14:07 11° 32° (NNE) 18:15:26 435.950
LilacSat-2 18 Jan 18:14:32 18:17:51 27° 265° (W) 18:21:10 437.200
ZACube-1 18 Jan 18:17:57 18:20:47 17° 62° (ENE) 18:23:40 437.345
XW-2C 18 Jan 18:20:25 18:23:37 25° 265° (W) 18:26:49 145.795 - 145.815
AO-73 18 Jan 18:26:15 18:29:15 18° 63° (ENE) 18:32:17 145.935
STARS 18 Jan 18:32:31 18:36:57 86° 104° (ESE) 18:41:23 437.465
CUTE-I 18 Jan 18:40:50 18:45:28 30° 265° (W) 18:50:07 437.470
XW-2A 18 Jan 18:47:13 18:50:15 31° 71° (ENE) 18:53:19 145.665 - 145.685
Oscar 11 18 Jan 19:01:54 19:05:28 25° 67° (ENE) 19:09:02 .
KAITUO 1B 18 Jan 19:04:42 19:05:59 11° 270° (W) 19:07:14 145.475/437.950
FO-29 18 Jan 19:05:56 19:07:13 11° 86° (E) 19:08:30 435.910
BEESAT 3 18 Jan 19:07:20 19:11:16 85° 55° (NE) 19:15:08 437.485
NO-84 18 Jan 19:07:32 19:10:21 38° 328° (NNW) 19:13:03 435.350 FM
PCSat 18 Jan 19:08:46 19:14:06 54° 53° (NE) 19:19:24 145.827
AAUSAT CUBESAT 2 18 Jan 19:10:02 19:14:11 75° 74° (ENE) 19:18:18 437.432
CUBEBUG 2 18 Jan 19:11:48 19:15:57 44° 262° (W) 19:20:16 437.445
HO-68 18 Jan 19:18:28 19:25:02 39° 263° (W) 19:31:40 435.675
SEEDS 18 Jan 19:20:31 19:24:26 36° 263° (W) 19:28:19 437.485
UWE-3 18 Jan 19:22:31 19:26:52 61° 260° (W) 19:31:22 435.000/436.395/437.385
CUTE 1.7 + AOD 2 18 Jan 19:28:49 19:31:54 19° 268° (W) 19:34:59 437.475
RS-15 18 Jan 19:39:32 19:49:02 31° 257° (WSW) 19:58:13 29.354- 29.394
STRAND 1 18 Jan 19:44:55 19:50:02 64° 102° (ESE) 19:55:09 437.568
AO-85 18 Jan 19:45:46 19:49:11 19° 37° (NE) 19:52:45 145.980
BEESAT 2 18 Jan 19:48:39 19:52:39 62° 52° (NE) 19:56:34 435.950
ZACube-1 18 Jan 19:52:15 19:56:35 56° 260° (W) 20:01:03 437.345
AO-73 18 Jan 20:00:44 20:05:03 52° 261° (W) 20:09:29 145.935
STARS 18 Jan 20:11:11 20:12:37 11° 301° (WNW) 20:14:02 437.465
DELFI C3 18 Jan 20:12:34 20:15:48 25° 68° (ENE) 20:19:00 145.870
EO-88 18 Jan 20:17:27 20:18:56 12° 63° (ENE) 20:20:24 145.990 - 145.960
XW-2A 18 Jan 20:20:50 20:23:01 16° 267° (W) 20:25:12 145.665 - 145.685
Oscar 11 18 Jan 20:37:31 20:41:27 33° 264° (W) 20:45:25 .
nSIGHT-1 18 Jan 20:38:43 20:40:05 12° 132° (SE) 20:41:26 .
NO-84 18 Jan 20:46:55 20:48:08 12° 348° (NNW) 20:49:20 435.350 FM
FO-29 18 Jan 20:47:54 20:53:11 87° 283° (WNW) 20:58:23 435.910
PCSat 18 Jan 20:52:51 20:57:08 24° 252° (WSW) 21:01:24 145.827
Max Valier Satellite 18 Jan 21:23:25 21:27:08 73° 258° (WSW) 21:30:54 145.860
STRAND 1 18 Jan 21:25:14 21:28:43 19° 300° (WNW) 21:32:13 437.568
AO-85 18 Jan 21:25:18 21:30:14 89° 51° (NE) 21:35:30 145.980
BEESAT 2 18 Jan 21:27:53 21:29:50 13° 251° (WSW) 21:31:46 435.950
TIGRISAT 18 Jan 21:32:52 21:37:09 33° 96° (E) 21:41:22 435.000
YUBILEINY 18 Jan 21:40:32 21:45:11 16° 74° (ENE) 21:49:50 435.215
LO-87 18 Jan 21:44:05 21:46:18 16° 65° (ENE) 21:48:31 145.935 - 145.965
DELFI C3 18 Jan 21:47:06 21:50:25 26° 264° (W) 21:53:47 145.870
UNISAT 6 18 Jan 21:47:15 21:51:50 50° 99° (E) 21:56:24 437.425
EO-88 18 Jan 21:48:31 21:52:06 53° 260° (W) 21:55:42 145.990 - 145.960
nSIGHT-1 18 Jan 22:12:38 22:15:47 89° 287° (WNW) 22:18:58 .
ISS 18 Jan 22:15:27 22:18:42 68° 146° (SE) 22:21:57 437.550
NO-84 18 Jan 22:25:13 22:26:20 12° 11° (N) 22:27:27 435.350 FM
ESTCUBE 1 18 Jan 22:27:39 22:31:58 45° 71° (ENE) 22:36:18 437.505/2401.250
FO-29 18 Jan 22:35:24 22:37:27 12° 305° (NW) 22:39:28 435.910
PRISM 18 Jan 22:46:08 22:50:02 43° 99° (E) 22:53:55 437.425
SPROUT 18 Jan 22:55:48 22:59:03 22° 65° (ENE) 23:02:19 437.525
AIST 2D 18 Jan 22:59:24 23:02:25 27° 96° (E) 23:05:24 435.315
AO-85 18 Jan 23:07:35 23:10:06 14° 252° (WSW) 23:12:40 145.980
TIGRISAT 18 Jan 23:09:40 23:13:42 29° 293° (WNW) 23:17:44 435.000
QB50P2 18 Jan 23:10:57 23:13:17 14° 90° (E) 23:15:36 145.880/145.840
LO-87 18 Jan 23:16:06 23:19:24 36° 262° (W) 23:22:44 145.935 - 145.965
UNISAT 6 18 Jan 23:24:46 23:28:10 20° 296° (WNW) 23:31:35 437.425
YUBILEINY 18 Jan 23:31:37 23:40:24 77° 95° (E) 23:49:13 435.215
EO-79 18 Jan 23:41:44 23:45:23 27° 95° (E) 23:49:01 145.935-145.965
DUCHIFAT 1 18 Jan 23:43:56 23:47:15 22° 94° (E) 23:50:32 145.980
nSIGHT-1 18 Jan 23:49:33 23:52:16 25° 348° (NNW) 23:55:00 .
ISS 18 Jan 23:52:27 23:55:23 29° 345° (NNW) 23:58:19 437.550
NO-84 19 Jan 00:01:28 00:04:08 36° 31° (NNE) 00:06:54 435.350 FM
ESTCUBE 1 19 Jan 00:05:44 00:08:59 19° 268° (W) 00:12:15 437.505/2401.250
VELOX 1 19 Jan 00:14:23 00:18:46 82° 77° (ENE) 00:23:11 145.980
POLYITAN 1 19 Jan 00:15:37 00:19:54 62° 101° (E) 00:24:09 437.675
PRISM 19 Jan 00:22:15 00:24:59 18° 296° (WNW) 00:27:43 437.425
SPROUT 19 Jan 00:30:46 00:34:42 37° 263° (W) 00:38:41 437.525
AIST 2D 19 Jan 00:32:54 00:35:23 19° 293° (WNW) 00:37:53 435.315
UKube-1 19 Jan 00:33:16 00:36:07 18° 63° (ENE) 00:38:58 .
NANOSAT C BR1 19 Jan 00:33:37 00:37:55 86° 108° (ESE) 00:42:10 145.865
O/OREOS (USA 219) 19 Jan 00:37:41 00:41:44 33° 106° (ESE) 00:45:48 437.305
DX 1 19 Jan 00:38:48 00:42:36 31° 67° (ENE) 00:46:25 434.975-435.025
QB50P2 19 Jan 00:45:11 00:49:24 56° 287° (WNW) 00:53:35 145.880/145.840
Gurwin Techsat 1B 19 Jan 00:46:36 00:48:55 13° 88° (E) 00:51:13 435.225
BUGSAT 1 19 Jan 00:54:33 00:58:16 29° 96° (E) 01:01:59 437.445
